Location: Barèges
(42.8962°N, 0.0620°E)
Time: 15:35:44
(UTC+00:00)

Daily predictions for brighter satellites

Satellite Brightness Start Highest point End
(mag) Time Altitude Azimuth Time Altitude Azimuth Time Altitude Azimuth
Cosmos 2074 Rocket 4.5 20:01:07 10° SSE 20:06:54 42° E 20:12:45 10° NNE
Cosmos 1603 3.8 20:01:53 10° NNW 20:07:38 75° ENE 20:13:16 10° SSE
CSL-04 Rocket 3.9 20:02:45 10° S 20:08:13 78° WSW 20:13:47 10° NNW
ISS -1.7 20:12:20 10° W 20:15:18 29° NNW 20:18:18 10° NE
SPOT 5 3.4 20:11:03 10° SE 20:15:43 47° ENE 20:20:37 10° N
Cosmos 1607 4.5 20:10:09 10° NW 20:16:25 60° WSW 20:22:30 10° SSE
Cosmos 921 Rocket 4.1 20:14:25 10° N 20:18:03 28° ENE 20:21:41 10° SE
Cosmos 2112 Rocket 4.1 20:15:41 10° NNW 20:20:56 83° WSW 20:26:11 10° SSE
USA 186 4.0 20:19:04 10° SSW 20:21:35 23° W 20:24:06 10° NW
Cosmos 1328 3.6 20:18:01 10° S 20:21:49 68° E 20:25:36 10° NNE
Cosmos 1825 2.7 20:19:09 10° SSW 20:22:28 54° W 20:25:49 10° N
USA 215 3.4 20:16:21 10° SE 20:22:54 81° NE 20:29:30 10° NW
Cosmos 494 Rocket 4.4 20:20:24 10° N 20:25:32 51° ENE 20:30:30 11° SE
NOSS 2-3 (D) 3.7 20:22:32 10° S 20:25:54 34° ESE 20:29:24 10° NE
Okean-O 2.6 20:23:43 10° SSE 20:28:06 79° ENE 20:32:31 10° N
ARGOS Delta rocket 3.9 20:24:05 10° S 20:28:42 83° W 20:33:39 10° NNW
BREEZE-M DEB (TANK) 4.5 20:28:27 10° WSW 20:29:57 15° SSW 20:32:07 10° S
Timation 2 Rocket 4.3 20:24:32 10° S 20:30:33 45° ESE 20:36:22 10° NE
Gbstr 26 Del rocket 4.4 20:27:05 10° W 20:31:07 44° NNW 20:35:58 10° NE
Cosmos 1125 Rocket 4.4 20:28:23 10° SSE 20:32:54 29° E 20:37:26 10° NE
CZ-4C R/B 3.3 20:31:25 10° NNE 20:35:00 50° E 20:38:26 10° S
USA 276 3.9 20:36:57 10° NW 20:39:29 25° NNE 20:42:04 10° ENE
Cosmos 2084 3.3 20:36:58 10° SSW 20:41:08 65° SE 20:45:06 10° NE
SPOT 3 Rocket 4.5 20:38:30 13° SE 20:42:33 34° ENE 20:47:13 10° N
NOSS 2-2 (E) 2.6 20:45:23 10° SSW 20:48:49 79° ESE 20:51:55 10° NE
NOSS 2-2 (C) 3.3 20:45:54 10° SW 20:49:10 60° NW 20:52:14 10° NNE
In-Cosmos 22 Rocket 4.4 20:45:22 10° S 20:50:58 56° E 20:56:29 10° NNE
BREEZE-M DEB (TANK) 4.0 20:51:33 10° NW 20:54:21 49° NNE 21:01:37 10° E
NOSS 2-3 (E) 3.0 20:51:17 10° SSW 20:54:55 84° SE 20:58:50 10° NE
Nadezhda 3 Rocket 4.0 20:48:47 10° N 20:54:55 67° E 21:00:16 14° SSE
Cosmos 1844 4.4 20:49:42 10° SW 20:55:24 60° WNW 21:01:08 10° NNE
Terra 2.0 20:52:38 16° SSE 20:56:19 59° ENE 21:00:59 10° N
Meteor 1-21 Rocket 4.3 20:56:53 10° SSW 21:02:26 81° W 21:08:00 10° N
Cosmos 1437 Rocket 4.0 21:07:19 20° ESE 21:07:53 21° E 21:10:39 10° NE
ATLAS CENTAUR R/B 1.5 21:04:32 10° NNW 21:08:32 64° NE 21:10:52 24° SE
GP-B 4.2 21:04:33 10° NNW 21:08:44 43° W 21:12:54 10° SSW
NOSS 2-3 (C) 3.6 21:09:07 10° SW 21:12:42 63° NW 21:16:36 10° NNE
Cosmos 1833 Rocket 3.6 21:09:43 10° N 21:14:58 37° ENE 21:18:22 19° ESE
Meteor 2-1 Rocket 4.2 21:09:42 10° N 21:15:19 68° ENE 21:18:58 22° SSE
Cosmos 1455 Rocket 3.1 21:12:13 10° NNW 21:16:36 75° W 21:19:44 18° S
Cosmos 1975 Rocket 3.1 21:12:45 12° S 21:16:57 90° WNW 21:21:27 10° N
Cosmos 1025 Rocket 4.2 21:13:27 10° SSW 21:17:27 41° WNW 21:21:30 10° N
Cosmos 44 3.6 21:12:42 10° S 21:17:47 48° ESE 21:22:43 10° NE
Lacrosse 5 3.7 21:15:53 10° W 21:20:27 33° NNW 21:25:03 10° NE
Orbus 7S? 2.4 21:17:46 10° NW 21:20:28 85° SW 21:21:21 40° SE
ERS-1 Rocket 3.2 21:18:03 16° S 21:22:00 67° WSW 21:27:00 10° NNW
Spot 2 Rocket 3.5 21:19:30 21° SSE 21:23:00 90° WSW 21:28:08 10° NNW
Cosmos 220 Rocket 4.4 21:22:30 10° N 21:26:31 46° ENE 21:28:09 30° ESE
NOSS 2-2 (D) 4.3 21:23:32 10° WSW 21:26:39 37° NW 21:29:36 10° NNE
Cosmos 2218 Rocket 4.5 21:23:42 23° SE 21:26:57 42° E 21:32:41 10° NNE
ATLAS 5 CENTAUR R/B 4.5 21:25:01 10° WNW 21:27:03 15° NW 21:29:13 10° N
Cosmos 2082 Rocket 4.3 21:24:16 10° N 21:27:40 16° NE 21:31:03 10° E
Cosmos 2278 Rocket 3.1 21:31:13 25° SE 21:32:33 28° ESE 21:37:18 10° NE
Landsat 5 3.9 21:28:31 10° NNE 21:32:45 45° E 21:34:11 33° SSE
Cosmos 2298 Rocket 4.1 21:33:31 22° S 21:36:52 59° ESE 21:42:06 10° NNE
MetOp-A 4.2 21:35:01 29° ESE 21:36:52 44° ENE 21:41:03 10° N
Cosmos 1606 2.4 21:33:22 10° N 21:36:57 87° WSW 21:38:05 41° S
Cosmos 2341 Rocket 4.0 21:33:38 22° S 21:37:49 66° E 21:44:06 10° NNE
Cosmos 1339 Rocket 4.4 21:33:12 10° N 21:39:27 88° W 21:43:23 24° S
Meteor 1-11 4.4 21:35:20 10° SSW 21:41:03 72° W 21:46:46 10° N
Cosmos 1536 Rocket 3.8 21:47:10 40° SE 21:48:12 50° E 21:52:22 10° NNE
Cosmos 1869 3.4 21:45:00 10° NNW 21:48:48 67° W 21:50:08 37° SSW
Ariane Rocket 3.5 21:47:25 23° S 21:50:25 56° W 21:55:25 10° NNW
ISS -0.9 21:50:27 10° NW 21:52:49 18° N 21:55:10 10° NE
MOS 1 Rocket 4.4 21:50:51 17° SSW 21:53:54 36° W 21:58:04 10° NNW
ARIANE 5 R/B 3.8 21:58:54 27° E 21:59:57 30° ENE 22:03:50 10° N
ATLAS 3B R/B 3.5 22:01:26 29° SE 22:02:44 31° ESE 22:09:05 10° NE
GENESIS II 4.0 21:59:40 10° NNW 22:03:14 62° NE 22:03:31 59° E
BREEZE-M DEB (TANK) 2.9 21:54:36 10° WNW 22:04:59 83° SSW 22:06:11 46° SE
USA 215 4.4 22:03:13 21° SSW 22:06:18 29° SW 22:11:54 10° WNW
Cosmos 1727 Rocket 4.5 22:00:22 10° N 22:06:27 46° ENE 22:08:48 33° SE
Cosmos 2228 2.9 22:02:54 10° N 22:07:06 78° W 22:08:06 50° S
Cosmos 1943 Rocket 2.8 22:08:20 34° ESE 22:08:55 35° ESE 22:13:58 10° NE
Cosmos 1821 Rocket 4.2 22:09:49 37° SSE 22:12:08 57° E 22:18:20 10° NNE
USA 276 2.9 22:10:55 10° WNW 22:13:09 45° WNW 22:13:09 45° WNW
Cosmos 2150 Rocket 4.5 22:14:23 17° SW 22:18:33 62° WNW 22:23:58 10° NNE
NOSS 3-1 (C) 2.9 22:24:27 25° SW 22:27:20 83° NW 22:33:03 10° NE
SeaSat 1 3.9 22:26:56 22° E 22:28:51 29° NE 22:33:03 10° N
Terra 4.2 22:31:35 10° SW 22:34:17 15° W 22:36:59 10° NW
Cosmos 2366 rocket 4.4 22:30:37 23° SSW 22:34:22 56° WNW 22:40:25 10° N
Cosmos 1812 3.7 22:33:46 10° N 22:36:28 34° NE 22:36:28 34° NE
BREEZE-M R/B 4.0 22:37:16 10° W 22:41:24 68° NNW 22:54:05 10° ENE
Cosmos 1892 Rocket 3.7 22:45:05 59° E 22:45:05 59° E 22:49:25 10° NNE
PSLV R/B 4.0 22:41:16 10° NNE 22:44:51 62° ENE 22:44:51 62° ENE
ATLAS CENTAUR R/B 3.7 22:43:44 10° W 22:45:40 13° WSW 22:45:46 13° WSW
Cosmos 1140 Rocket 4.4 22:48:56 10° N 22:53:41 37° ENE 22:54:49 33° E
Cosmos 2239 Rocket 4.4 22:55:30 50° S 22:57:15 86° E 23:03:31 10° N
Cosmos 1833 Rocket 3.7 22:53:46 10° NW 22:58:47 34° WSW 23:00:03 30° SW
SL-08 R/B 4.3 22:57:34 51° S 22:59:15 88° E 23:05:24 10° N
NOSS 3-1 (A) 2.8 23:03:57 64° SSW 23:04:44 87° SE 23:10:29 10° NE
Cosmos 2123 Rocket 4.1 23:00:06 10° N 23:06:21 64° E 23:07:51 49° SE
Cosmos 1606 Rocket 4.0 23:02:46 10° NNW 23:06:57 50° W 23:07:01 49° W
Cosmos 1726 Rocket 3.7 23:04:54 10° NNW 23:09:05 65° W 23:09:05 65° W
Cosmos 1000 Rocket 4.4 23:05:01 10° N 23:11:11 81° W 23:12:37 55° S
Cosmos 2082 Rocket 2.0 23:06:56 10° NNW 23:12:35 88° ENE 23:13:28 65° SSE
Cosmos 2278 Rocket 3.1 23:12:59 21° WSW 23:16:23 44° WNW 23:21:48 10° NNE
Cosmos 2369 Rocket 3.5 23:19:37 24° E 23:19:37 24° E 23:23:35 10° NE
H-2A R/B 2.7 23:20:31 61° NNW 23:20:31 61° NNW 23:23:45 10° NNW
ULPM Upper Stage 3.2 23:16:34 10° NNW 23:20:52 54° NE 23:20:59 54° NE
PSLV R/B 4.4 23:18:50 10° NNE 23:22:20 40° ENE 23:22:20 40° ENE
Cosmos 489 Rocket 4.3 23:24:24 60° S 23:25:33 77° ESE 23:31:46 10° NNE
ISS -1.8 23:27:22 10° NW 23:30:09 28° NNE 23:30:09 28° NNE
USA 229 DEB 3.8 23:32:18 47° ESE 23:32:25 47° ESE 23:38:40 10° NE
USA 229 3.8 23:32:27 46° ESE 23:32:33 46° ESE 23:38:47 10° NE
Cosmos 2058 Rocket 3.3 23:30:41 10° NNW 23:34:37 62° WNW 23:34:37 62° WNW
Cosmos 1782 3.7 23:31:44 10° N 23:34:35 42° NNE 23:34:35 42° NNE
ARIANE 5 R/B 4.1 23:36:22 27° W 23:36:22 27° W 23:40:04 10° NW
CRYOSAT 2 4.2 23:33:01 10° N 23:37:55 82° E 23:37:58 82° ESE
CZ-4C R/B 3.4 23:33:21 10° NNW 23:40:28 60° NE 23:45:35 26° ESE
Cosmos 1934 Rocket 4.1 23:39:12 52° SW 23:40:43 72° W 23:46:58 10° N
COSMOS 2406 3.1 23:36:42 10° NNW 23:42:21 69° WSW 23:42:49 66° SW
Meteor 2-2 Rocket 4.4 23:36:45 10° N 23:42:28 63° ENE 23:43:24 55° ESE
Cosmos 2221 4.5 23:43:31 10° NNE 23:46:36 19° ENE 23:46:52 19° ENE
Cosmos 1943 Rocket 3.4 23:49:48 23° WSW 23:52:35 36° WNW 23:57:46 10° N
Cosmos 2058 4.2 23:54:52 32° WNW 23:54:52 32° WNW 23:58:25 10° NNW
